Weather History for Roswell, NM

Change the Weather History Date:

Saturday, March 30, 2013

  Actual Average Record
Temperature  
Mean Temperature 63 °F 56 °F  
Max Temperature 84 °F 72 °F 94 °F (1901)
Min Temperature 41 °F 40 °F 14 °F (1987)
Degree Days  
Heating Degree Days 2 9  
Month to date heating degree days 316 379  
Since 1 July heating degree days 2770 3086  
Cooling Degree Days 0 0  
Month to date cooling degree days 2 0  
Year to date cooling degree days 2 0  
Growing Degree Days 12 (Base 50)    
Moisture  
Dew Point 17 °F    
Average Humidity 20    
Maximum Humidity 31    
Minimum Humidity 9    
Precipitation  
Precipitation 0.00 in 0.01 in 0.61 in (2002)
Month to date precipitation T 0.49  
Year to date precipitation 0.44 1.29  
Sea Level Pressure  
Sea Level Pressure 29.87 in    
Wind  
Wind Speed 7 mph (WNW)    
Max Wind Speed 23 mph    
Max Gust Speed 28 mph    
Visibility 10 miles    
Events      
T = Trace of Precipitation, MM = Missing Value Source: NWS Daily Summary

Daily Weather History Graph

Daily Weather History Graph

Search for Another Location

Airport:

Trip Planner

Search our weather history database for the weather conditions in past years. The results will help you decide how hot, cold, wet, or windy it might be!

Date:

Astronomy

Mar. 30, 2013 Rise Set
Actual Time 6:48 AM MDT 7:17 PM MDT
Civil Twilight 6:23 AM MDT 7:42 PM MDT
Nautical Twilight 5:53 AM MDT 8:11 PM MDT
Astronomical Twilight 5:24 AM MDT 8:41 PM MDT
Moon 11:14 PM MDT (3/30) 8:56 AM MDT (3/30)
Length of Visible Light 13h 19m
Length of Day
12h 29m
Waning Gibbous, 86% of the Moon is Illuminated
Mar 30
Waning Gibbous
Apr 2
Last Quarter
Apr 10
New
Apr 18
First Quarter
Apr 25
Full

Hourly Weather History & Observations

Time (MDT) Temp. Windchill Dew Point Humidity Pressure Visibility Wind Dir Wind Speed Gust Speed Precip Events Conditions
12:51 AM 54.0 °F - 10.0 °F 17% 29.90 in 10.0 mi NNE 3.5 mph - N/A   Clear
1:51 AM 57.0 °F - 10.9 °F 16% 29.88 in 10.0 mi West 9.2 mph - N/A   Clear
2:51 AM 48.0 °F - 19.9 °F 33% 29.92 in 10.0 mi NNE 3.5 mph - N/A   Clear
3:51 AM 50.0 °F - 14.0 °F 24% 29.91 in 10.0 mi Calm Calm - N/A   Clear
4:51 AM 48.9 °F - 12.0 °F 23% 29.91 in 10.0 mi Calm Calm - N/A   Clear
5:51 AM 43.0 °F 40.3 °F 9.0 °F 25% 29.94 in 10.0 mi SSW 4.6 mph - N/A   Clear
6:51 AM 42.1 °F 40.2 °F 8.1 °F 25% 29.96 in 10.0 mi WSW 3.5 mph - N/A   Clear
7:51 AM 51.1 °F - 10.9 °F 20% 29.96 in 10.0 mi West 3.5 mph - N/A   Clear
8:51 AM 57.0 °F - 12.9 °F 18% 29.98 in 10.0 mi NNE 4.6 mph - N/A   Clear
9:51 AM 61.0 °F - 19.9 °F 21% 29.97 in 10.0 mi Variable 3.5 mph - N/A   Clear
10:51 AM 69.1 °F - 21.9 °F 17% 29.95 in 10.0 mi North 6.9 mph - N/A   Clear
11:51 AM 73.0 °F - 23.0 °F 15% 29.94 in 10.0 mi East 6.9 mph - N/A   Clear
12:51 PM 79.0 °F - 23.0 °F 13% 29.90 in 10.0 mi ENE 5.8 mph - N/A   Clear
1:51 PM 81.0 °F - 21.0 °F 11% 29.86 in 10.0 mi Variable 4.6 mph - N/A   Clear
2:51 PM 82.0 °F - 19.0 °F 10% 29.84 in 10.0 mi ENE 5.8 mph - N/A   Clear
3:51 PM 81.0 °F - 18.0 °F 10% 29.81 in 10.0 mi Calm Calm - N/A   Clear
4:51 PM 82.0 °F - 19.0 °F 10% 29.78 in 10.0 mi ESE 10.4 mph - N/A   Clear
5:51 PM 80.1 °F - 18.0 °F 10% 29.79 in 10.0 mi SSE 12.7 mph - N/A   Clear
6:51 PM 78.1 °F - 16.0 °F 10% 29.80 in 10.0 mi South 11.5 mph - N/A   Clear
7:51 PM 75.9 °F - 17.1 °F 11% 29.79 in 10.0 mi South 9.2 mph - N/A   Partly Cloudy
8:51 PM 75.9 °F - 17.1 °F 11% 29.80 in 10.0 mi NW 6.9 mph - N/A   Clear
9:51 PM 73.9 °F - 19.0 °F 13% 29.81 in 10.0 mi West 20.7 mph - N/A   Clear
10:51 PM 73.0 °F - 19.9 °F 14% 29.81 in 10.0 mi West 11.5 mph - N/A   Clear
11:51 PM 71.1 °F - 19.9 °F 14% 29.80 in 10.0 mi West 10.4 mph - N/A   Clear